Regional Weather Roundup
Issued by NWS New Orleans/Baton Rouge, LA

Home | Current Version | Previous Version | Text Only | Print | Product List | Glossary On
Versions: 1 2 3 4 5 6 7 8 9 10 11 12 13 14 15 16 17 18 19 20 21 22 23 24 25 26 27 28 29 30 31 32 33 34 35 36 37 38 39 40 41 42 43 44 45 46 47 48 49 50
000
ASUS44 KLIX 172110
RWRLIX
NEW ORLEANS REGIONAL WEATHER ROUNDUP
NATIONAL WEATHER SERVICE NEW ORLEANS LA
400 PM CDT WED SEP 17 2014

NOTE: "FAIR" INDICATES FEW OR NO CLOUDS BELOW 12,000 FEET WITH NO
      SIGNIFICANT WEATHER AND/OR OBSTRUCTIONS TO VISIBILITY.
      SKY/WX - SKY CONDITION AND SIGNIFICANT WEATHER.
      TMP - AIR TEMPERATURE.     DP    - DEWPOINT TEMPERATURE.
      RH  - RELATIVE HUMIDITY.   PRES  - PRESSURE.
      HI  - HEAT INDEX.          WCI   - WIND CHILL INDEX.

*  THESE STATIONS ARE NOT NWS OR FAA STATIONS AND ARE NOT UNDER
   NWS QUALITY CONTROL.

LAZ038-040-048-061>063-065>067-069-172200-
SOUTHEAST LOUISIANA

CITY           SKY/WX    TMP DP  RH WIND       PRES   REMARKS
N.O. AUDUBON     N/A     89  74  60 MISG        N/A  HX  99
N.O. INTL ARPT CLOUDY    87  69  54 NE6       29.91F
N.O. LAKEFRONT PTSUNNY   86  71  60 N5        29.91F
N.O. DOWNTOWN*   N/A     88  66  48 N5        29.90F
SLIDELL        MOSUNNY   85  74  69 S7        29.90F
BATON ROUGE    PTSUNNY   87  72  60 CALM      29.90F
BOOTHVILLE     PTSUNNY   82  72  71 SE6       29.92F
BELLE CHASSE   PTSUNNY   87  71  58 E5        29.89F
BOGALUSA*        N/A     91  66  44 CALM      29.91F
GALLIANO*      NOT AVBL
NEW ROADS*       N/A     86  72  63 N3        29.90F
GONZALES*        N/A     88  73  62 CALM      29.90F HX  95
HAMMOND*       PTSUNNY   90  70  51 CALM      29.91F HX  95
HOUMA*         PTSUNNY   88  72  58 NE14      29.91F
PORT FOURCHON* CLOUDY    84  73  70 CALM      29.95F

$$

MSZ070-080>082-172200-
SOUTHERN MISSISSIPPI

CITY           SKY/WX    TMP DP  RH WIND       PRES   REMARKS
MCCOMB         MOSUNNY   86  69  56 CALM      29.91F
GULFPORT       MOSUNNY   87  73  62 VRB6      29.89F
BILOXI         MOSUNNY   88  72  58 S7        29.92S
PASCAGOULA     SUNNY     86  72  62 S8        29.90F

$$

COASTAL OBSERVATIONS
LAKE AND NEARSHORE STATIONS

STATION/POSITION TIME  TEMP    WIND        PRES    WAVE
                       AIR SEA DIR/SP/G            HT/PER
                 (UTC) (F)     (DEG/KT/KT) (MB)    (FT/S)
PASCAGOULA       2100   85     210/  7/ 11 1012.2
WAVELAND YACHT   2100   84     210/  6/  8 1011.9
GRAND ISLE       2100   85 87  140/  5/  7 1013.7
SOUTHWEST PASS   2100   87 92  260/  7/ 10 1013.5
NEW CANAL        2100   83 83  360/  3/  4 1013.1
SHELL BEACH      2100   84 82   60/  4/  5 1012.6

OFFSHORE STATIONS

STATION/POSITION TIME  TEMP    WIND        PRES    WAVE
                       AIR SEA DIR/SP/G            HT/PER
                 (UTC) (F)     (DEG/KT/KT) (MB)    (FT/S)
64 S DAUPHIN ISL 2043   83 87   50/  4/  6 1013.3    1/ 8

$$



USA.gov is the U.S. government's official web portal to all federal, state and local government web resources and services.